Hourly Data Report for October 14, 2003

All times are specified in Local Standard Time (LST). Add 1 hour to adjust for Daylight Saving Time where and when it is observed.

TORONTO CITY
ONTARIO

43°40'00.000" N
79°24'00.000" W
112.50 m
6158355
71508
XTO

Download Data

Hourly Data (October 2003)
Hourly Data Report for October 14, 2003
TIME Temp Definition
°C
Dew Point Definition
°C
Rel Hum Definition
%
Wind Dir Definition
10's deg

Wind Spd Definition
km/h
Visibility Definition
km
Stn Press Definition
kPa
Hmdx Definition


Wind Chill Definition


Weather Definition


00:00 10.4 8.9 90 LegendMM LegendMM LegendMM 99.86     LegendNANA
01:00 9.7 8.6 93 LegendMM LegendMM LegendMM 99.80     LegendNANA
02:00 9.6 8.2 91 LegendMM LegendMM LegendMM 99.71     LegendNANA
03:00 9.2 8.2 93 LegendMM LegendMM LegendMM 99.67     LegendNANA
04:00 9.3 8.5 95 LegendMM LegendMM LegendMM 99.61     LegendNANA
05:00 10.3 9.8 97 LegendMM LegendMM LegendMM 99.57     LegendNANA
06:00 9.7 9.2 97 LegendMM LegendMM LegendMM 99.50     LegendNANA
07:00 8.7 8.3 97 LegendMM LegendMM LegendMM 99.46     LegendNANA
08:00 10.5 9.9 96 LegendMM LegendMM LegendMM 99.34     LegendNANA
09:00 13.0 10.8 86 LegendMM LegendMM LegendMM 99.17     LegendNANA
10:00 16.0 10.7 71 LegendMM LegendMM LegendMM 99.00     LegendNANA
11:00 14.1 11.3 83 LegendMM LegendMM LegendMM 98.87     LegendNANA
12:00 13.9 8.9 72 LegendMM LegendMM LegendMM 98.70     LegendNANA
13:00 13.0 9.7 80 LegendMM LegendMM LegendMM 98.54     LegendNANA
14:00 14.2 10.3 77 LegendMM LegendMM LegendMM 98.30     LegendNANA
15:00 14.6 10.6 77 LegendMM LegendMM LegendMM 98.09     LegendNANA
16:00 14.1 11.3 83 LegendMM LegendMM LegendMM 97.86     LegendNANA
17:00 14.1 12.8 92 LegendMM LegendMM LegendMM 97.68     LegendNANA
18:00 13.5 12.9 96 LegendMM LegendMM LegendMM 97.60     LegendNANA
19:00 13.2 12.8 97 LegendMM LegendMM LegendMM 97.46     LegendNANA
20:00
21:00 13.3 13.0 98 LegendMM LegendMM LegendMM 97.37     LegendNANA
22:00                    
23:00                    

Notes on Data Quality.

Legend

  • E = Estimated
  • M = Missing
  • NA = Not Available*
  • [empty] = Indicates an unobserved value
Date modified: